Location: Newark
(32.8494°S, 27.4381°E)
Time: 03:21:45
(UTC+00:00)

OTV 5 (USA 277) - Visible Passes

Search period start: 14 October 2019 00:00
Search period end: 24 October 2019 00:00
Orbit: 310 x 324 km, 54.5° (Epoch: 08 October)

Date Brightness Start Highest point End Pass type
(mag) Time Alt. Az. Time Alt. Az. Time Alt. Az.
14 Oct ? 18:10:20 10° SW 18:11:52 27° WSW 18:11:52 27° WSW visible
15 Oct ? 16:51:01 10° SSW 16:53:16 22° SE 16:55:27 10° E visible
15 Oct ? 18:25:48 10° W 18:26:21 12° W 18:26:21 12° W visible
16 Oct ? 17:05:08 10° SW 17:07:53 76° SE 17:10:02 15° NE visible
17 Oct ? 17:19:59 10° WSW 17:22:21 26° NW 17:24:41 10° N visible
